Погода в Караколе

Киргизия     42°29′05″N   78°23′30″E
темп.,
°C
ветер,
м/с
пор.,
м/с
влажн.,
%
обл.,
%
осадки,
мм/ч
давл.,
гПа
погр.,
м
18 апреля, вс
вс1800:00+6юв235390 0.1 102047
03:00+4ююв2253100 0.0 101823
06:00+4ююв225299 0.0 101916
09:00+8ссз2145100 0.0 1019551
12:00+10зсз3243100 0.0 10171563
15:00+11зсз4346100 0.3 10151415
18:00+9с2255100 0.7 1017364
21:00+6в237299 0.2 101988
19 апреля, пн
пн1900:00+5ююв126796 0.3 101934
03:00+3зюз2390100 0.3 1020256
06:00+2с2296100 3.7 1022208
09:00+2ссз119898 3.3 1023165
12:00+6ссз227537 3.3 1019700
15:00+9сз335345 0.2 10161338
18:00+8сз214898 0.4 1015676
21:00+6ююв0161100 0.0 101733
20 апреля, вт
вт2000:00+4ссв117451 0.2 101829
03:00+2в12785 0.0 101738
06:00+2ююв1260100 0.0 101512
09:00+6ссз215664 0.0 1014401
12:00+10сз434989 0.0 10111226
15:00+11сз324682 0.3 10091057
18:00+10ссз2245100 0.6 1008511
21:00+7всв1150100 0.0 100812
21 апреля, ср
ср2100:00+5св1258100 0.0 100838
03:00+4ссв1166100 0.0 100730
06:00+4ю2269100 0.1 100851
09:00+5с2173100 0.5 1010323
12:00+6ссз217466 0.6 1009705
15:00+10ссз325261 0.1 10051417
18:00+10ссв445084 0.5 1003839
21:00+4ссз2296100 4.4 1011480
22 апреля, чт
чт2200:00+1всв0299100 14.0 1015209
03:00+1зюз1295100 2.8 1015291
06:000сз2398100 4.6 1016261
09:00−3ссв4698100 5.7 1022362
12:00−3св5693100 9.2 1025508
15:00−3св5794100 1.5 1027577
18:00−3всв46869 2.8 1030329
21:00−7ююв338190 0.1 103526